Location: Unspecified
(35.6961°N, 0.0000°E)
Time: 02:01:13
(UTC+00:00)

Altair - Pass Details

Date: 28 May 2019
Orbit: 1501 x 1683 km, 47.2° (Epoch: 23 June)

Event Time Altitude Azimuth Distance (km) Brightness Sun altitude
Rises 07:25:05 0° 300° (WNW) 4,939 9.7 29.7°
Reaches altitude 10° 07:28:22 10° 304° (NW) 3,947 9.3 30.4°
Maximum altitude 07:38:23 59° 23° (NNE) 1,873 8.7 32.4°
Drops below altitude 10° 07:48:07 10° 102° (ESE) 3,846 10.9 34.4°
Sets 07:51:16 0° 106° (ESE) 4,806 11.0 35.0°
